View from above orbital plane
|
View from above satellite
|
Ground track
|
The orbit data is extracted from the following two-line orbital elements,
1 23190U 94045B 21059.88840739 -.00000043 00000-0 -21968-4 0 9990
2 23190 74.0292 20.9367 0018315 49.4620 310.8091 13.74097839333025
Epoch (UTC): | 28 February 2021 21:19:18 |
Eccentricity: | 0.0018315 |
inclination: | 74.0292° |
perigee height: | 971 km |
apogee height: | 998 km |
right ascension of ascending node: | 20.9367° |
argument of perigee: | 49.4620° |
revolutions per day: | 13.74097839 |
mean anomaly at epoch: | 310.8091° |
orbit number at epoch: | 33302 |
The dashed part of the orbit path shows where the satellite is in the earth's shadow,
|
|